AUA7DL EDDG-EDLW

Flight info

Callsign AUA7DL
Flight time 0h 33m
Altitude 5000
Route DOMEG2Y DOMEG DOMEG2A
Aircraft A20N/M-SDE2E3FGHIRWXY/LB1

Departure

Time 2026-04-15 15:21
Airport Münster Osnabrück Airport (EDDG)

Arrival

Time 2026-04-15 15:54
Airport Dortmund Airport (EDLW)
Time Latitude Longitude Altitude Speed Heading
2026-04-15 15:03 52.13133 7.69222 167 ft 0 kts 187°
2026-04-15 15:15 52.13122 7.69204 167 ft 5 kts 242°
2026-04-15 15:16 52.13146 7.69157 167 ft 8 kts 335°
2026-04-15 15:16 52.13218 7.69123 167 ft 14 kts 349°
2026-04-15 15:16 52.13232 7.69122 167 ft 1 kts 12°
2026-04-15 15:16 52.13232 7.69125 167 ft 0 kts 32°
2026-04-15 15:17 52.13243 7.69167 167 ft 8 kts 70°
2026-04-15 15:17 52.13247 7.69187 167 ft 0 kts 72°
2026-04-15 15:17 52.13260 7.69251 167 ft 12 kts 71°
2026-04-15 15:17 52.13281 7.69331 167 ft 8 kts 47°
2026-04-15 15:18 52.13341 7.69305 167 ft 20 kts 318°
2026-04-15 15:18 52.13444 7.69245 167 ft 13 kts 31°
2026-04-15 15:18 52.13476 7.69359 167 ft 14 kts 69°
2026-04-15 15:18 52.13515 7.69531 167 ft 18 kts 70°
2026-04-15 15:19 52.13558 7.69736 168 ft 20 kts 68°
2026-04-15 15:19 52.13544 7.69904 168 ft 12 kts 66°
2026-04-15 15:19 52.13601 7.69988 168 ft 12 kts 29°
2026-04-15 15:19 52.13687 7.70032 168 ft 15 kts
2026-04-15 15:20 52.13767 7.69933 167 ft 16 kts 279°
2026-04-15 15:20 52.13729 7.69733 168 ft 39 kts 249°
2026-04-15 15:20 52.13535 7.68832 167 ft 125 kts 251°
2026-04-15 15:20 52.13187 7.67153 326 ft 177 kts 249°
2026-04-15 15:21 52.13117 7.65236 1241 ft 166 kts 287°
2026-04-15 15:21 52.13830 7.63807 2119 ft 169 kts 330°
2026-04-15 15:21 52.15018 7.63466 2729 ft 188 kts 11°
2026-04-15 15:21 52.16195 7.64521 3372 ft 204 kts 50°
2026-04-15 15:22 52.16804 7.66673 3927 ft 219 kts 86°
2026-04-15 15:22 52.16763 7.69216 4433 ft 239 kts 102°
2026-04-15 15:22 52.16262 7.71832 4972 ft 243 kts 113°
2026-04-15 15:22 52.15614 7.74379 5323 ft 245 kts 118°
2026-04-15 15:23 52.14755 7.76780 5501 ft 245 kts 128°
2026-04-15 15:23 52.13489 7.78602 5247 ft 244 kts 157°
2026-04-15 15:23 52.11858 7.79065 5000 ft 233 kts 189°
2026-04-15 15:23 52.10386 7.78003 4998 ft 241 kts 220°
2026-04-15 15:24 52.09269 7.75972 4996 ft 240 kts 233°
2026-04-15 15:24 52.08304 7.73753 4992 ft 240 kts 233°
2026-04-15 15:24 52.07205 7.71724 4997 ft 239 kts 220°
2026-04-15 15:24 52.05830 7.70212 5004 ft 238 kts 206°
2026-04-15 15:25 52.04312 7.69214 4995 ft 238 kts 197°
2026-04-15 15:25 52.02703 7.68523 4990 ft 238 kts 193°
2026-04-15 15:25 52.01075 7.67984 5003 ft 238 kts 191°
2026-04-15 15:25 51.99445 7.67496 5005 ft 238 kts 190°
2026-04-15 15:26 51.97816 7.67013 4996 ft 238 kts 190°
2026-04-15 15:26 51.96204 7.66528 4994 ft 238 kts 191°
2026-04-15 15:26 51.94572 7.66029 5000 ft 238 kts 191°
2026-04-15 15:26 51.92942 7.65526 4995 ft 238 kts 191°
2026-04-15 15:27 51.91306 7.65019 5000 ft 238 kts 191°
2026-04-15 15:27 51.89680 7.64513 5002 ft 238 kts 191°
2026-04-15 15:27 51.88067 7.64011 5007 ft 238 kts 191°
2026-04-15 15:27 51.86431 7.63505 4991 ft 238 kts 191°
2026-04-15 15:28 51.84800 7.63000 5007 ft 238 kts 191°
2026-04-15 15:28 51.83165 7.62494 5004 ft 238 kts 191°
2026-04-15 15:28 51.81526 7.61986 5008 ft 239 kts 191°
2026-04-15 15:28 51.79916 7.61486 5000 ft 239 kts 191°
2026-04-15 15:29 51.78282 7.60974 5000 ft 238 kts 191°
2026-04-15 15:29 51.76654 7.60466 5005 ft 238 kts 190°
2026-04-15 15:29 51.75021 7.59964 5004 ft 238 kts 191°
2026-04-15 15:29 51.73393 7.59464 4998 ft 238 kts 191°
2026-04-15 15:30 51.71776 7.59008 5001 ft 238 kts 186°
2026-04-15 15:30 51.70114 7.58932 4996 ft 238 kts 176°
2026-04-15 15:30 51.68471 7.59284 4998 ft 238 kts 171°
2026-04-15 15:30 51.66825 7.59702 5000 ft 239 kts 172°
2026-04-15 15:31 51.65196 7.60096 4998 ft 239 kts 172°
2026-04-15 15:31 51.63549 7.60487 4998 ft 239 kts 172°
2026-04-15 15:31 51.61903 7.60881 5000 ft 239 kts 172°
2026-04-15 15:31 51.60254 7.61274 4999 ft 239 kts 172°
2026-04-15 15:32 51.58608 7.61665 4999 ft 239 kts 172°
2026-04-15 15:32 51.56986 7.62051 4995 ft 239 kts 172°
2026-04-15 15:32 51.55325 7.62449 4978 ft 237 kts 171°
2026-04-15 15:32 51.53822 7.63412 4978 ft 240 kts 143°
2026-04-15 15:33 51.52805 7.65539 5035 ft 244 kts 112°
2026-04-15 15:33 51.52588 7.68233 5121 ft 247 kts 86°
2026-04-15 15:33 51.52908 7.70969 5218 ft 249 kts 77°
2026-04-15 15:33 51.53341 7.73646 5310 ft 250 kts 77°
2026-04-15 15:34 51.53744 7.76372 5395 ft 250 kts 79°
2026-04-15 15:34 51.54083 7.79085 5493 ft 250 kts 81°
2026-04-15 15:34 51.54382 7.81837 5584 ft 250 kts 82°
2026-04-15 15:34 51.54659 7.84613 5672 ft 251 kts 82°
2026-04-15 15:35 51.54922 7.87352 5752 ft 251 kts 83°
2026-04-15 15:35 51.54969 7.90140 5802 ft 248 kts 104°
2026-04-15 15:35 51.54210 7.92572 5836 ft 245 kts 134°
2026-04-15 15:35 51.52808 7.94040 5880 ft 242 kts 164°
2026-04-15 15:36 51.51161 7.94154 5915 ft 242 kts 194°
2026-04-15 15:36 51.49691 7.92883 5952 ft 243 kts 224°
2026-04-15 15:36 51.48830 7.90569 5999 ft 243 kts 254°
2026-04-15 15:36 51.48821 7.87806 6470 ft 250 kts 278°
2026-04-15 15:37 51.49199 7.85099 7041 ft 251 kts 283°
2026-04-15 15:37 51.49658 7.82384 7570 ft 253 kts 284°
2026-04-15 15:37 51.50160 7.79665 8057 ft 250 kts 292°
2026-04-15 15:37 51.50996 7.77162 7282 ft 262 kts 307°
2026-04-15 15:38 51.52191 7.74780 5964 ft 290 kts 303°
2026-04-15 15:38 51.53070 7.71788 4536 ft 305 kts 284°
2026-04-15 15:38 51.53481 7.68114 3396 ft 363 kts 279°
2026-04-15 15:38 51.54240 7.64204 3950 ft 363 kts 297°
2026-04-15 15:39 51.55802 7.61503 5937 ft 294 kts 330°
2026-04-15 15:39 51.56963 7.60867 6995 ft 245 kts 349°
2026-04-15 15:39 51.58614 7.60524 6614 ft 248 kts 355°
2026-04-15 15:39 51.60403 7.60617 5917 ft 260 kts 12°
2026-04-15 15:40 51.62005 7.61704 5970 ft 250 kts 38°
2026-04-15 15:40 51.63151 7.63902 6552 ft 264 kts 66°
2026-04-15 15:40 51.63547 7.66735 7370 ft 263 kts 94°
2026-04-15 15:40 51.63258 7.69797 7390 ft 300 kts 106°
2026-04-15 15:41 51.62580 7.73384 6458 ft 360 kts 114°
2026-04-15 15:41 51.61277 7.76875 6801 ft 366 kts 131°
2026-04-15 15:41 51.59395 7.79342 7854 ft 345 kts 158°
2026-04-15 15:41 51.57149 7.79875 8704 ft 338 kts 191°
2026-04-15 15:42 51.54771 7.78584 7239 ft 394 kts 207°
2026-04-15 15:42 51.52371 7.76254 7132 ft 390 kts 214°
2026-04-15 15:42 51.50210 7.73841 6470 ft 369 kts 216°
2026-04-15 15:42 51.48262 7.71398 5994 ft 347 kts 219°
2026-04-15 15:43 51.46861 7.68447 5737 ft 325 kts 253°
2026-04-15 15:43 51.46893 7.65038 5981 ft 293 kts 287°
2026-04-15 15:43 51.47583 7.62075 5763 ft 278 kts 291°
2026-04-15 15:43 51.48374 7.59314 5362 ft 273 kts 298°
2026-04-15 15:44 51.49653 7.57104 4966 ft 269 kts 324°
2026-04-15 15:44 51.51295 7.55703 4592 ft 264 kts 340°
2026-04-15 15:44 51.53041 7.55181 4425 ft 250 kts
2026-04-15 15:44 51.54520 7.55985 4583 ft 207 kts 39°
2026-04-15 15:45 51.55385 7.57783 4263 ft 204 kts 66°
2026-04-15 15:45 51.56078 7.59776 4028 ft 205 kts 59°
2026-04-15 15:45 51.56838 7.61701 3772 ft 207 kts 60°
2026-04-15 15:45 51.57573 7.63706 3497 ft 209 kts 62°
2026-04-15 15:46 51.58240 7.65803 3093 ft 214 kts 77°
2026-04-15 15:46 51.58434 7.68191 2758 ft 216 kts 93°
2026-04-15 15:46 51.58335 7.70657 2794 ft 245 kts 96°
2026-04-15 15:46 51.57977 7.73539 3299 ft 269 kts 103°
2026-04-15 15:47 51.58163 7.76579 3974 ft 296 kts 76°
2026-04-15 15:47 51.58961 7.79957 3679 ft 347 kts 63°
2026-04-15 15:47 51.60188 7.83522 3577 ft 382 kts 62°
2026-04-15 15:47 51.61356 7.87340 4677 ft 377 kts 70°
2026-04-15 15:48 51.61950 7.91389 5970 ft 362 kts 91°
2026-04-15 15:48 51.61117 7.94875 7871 ft 326 kts 139°
2026-04-15 15:48 51.59126 7.96037 8657 ft 315 kts 180°
2026-04-15 15:48 51.56800 7.95954 6379 ft 351 kts 191°
2026-04-15 15:49 51.54520 7.95424 4300 ft 303 kts 191°
2026-04-15 15:49 51.52782 7.94440 4113 ft 220 kts 218°
2026-04-15 15:49 51.51788 7.93019 3902 ft 180 kts 224°
2026-04-15 15:49 51.50977 7.91417 3301 ft 196 kts 246°
2026-04-15 15:50 51.51045 7.89125 3392 ft 229 kts 304°
2026-04-15 15:50 51.52312 7.87509 4176 ft 255 kts 330°
2026-04-15 15:50 51.53865 7.86181 4015 ft 249 kts 327°
2026-04-15 15:50 51.55231 7.84604 3885 ft 228 kts 319°
2026-04-15 15:51 51.56066 7.82896 4160 ft 161 kts 289°
2026-04-15 15:51 51.56207 7.81335 4103 ft 135 kts 263°
2026-04-15 15:51 51.56060 7.79735 3781 ft 170 kts 257°
2026-04-15 15:51 51.55852 7.77809 3294 ft 170 kts 259°
2026-04-15 15:52 51.55670 7.75968 2797 ft 163 kts 257°
2026-04-15 15:52 51.55405 7.74216 2366 ft 157 kts 252°
2026-04-15 15:52 51.55104 7.72578 2001 ft 149 kts 250°
2026-04-15 15:52 51.54769 7.71058 1663 ft 146 kts 248°
2026-04-15 15:53 51.54423 7.69388 991 ft 183 kts 251°
2026-04-15 15:53 51.53909 7.67310 961 ft 200 kts 241°
2026-04-15 15:53 51.53305 7.65438 777 ft 184 kts 240°
2026-04-15 15:53 51.52678 7.63608 626 ft 184 kts 240°
2026-04-15 15:54 51.52058 7.61879 412 ft 160 kts 240°
2026-04-15 15:54 51.51698 7.60858 415 ft 45 kts 240°
2026-04-15 15:54 51.51619 7.60635 415 ft 44 kts 240°
2026-04-15 15:54 51.51493 7.60278 427 ft 16 kts 233°
2026-04-15 15:55 51.51427 7.60252 427 ft 10 kts 158°
2026-04-15 15:55 51.51363 7.60350 426 ft 12 kts 109°
2026-04-15 15:55 51.51408 7.60525 427 ft 12 kts 60°
2026-04-15 15:55 51.51411 7.60533 429 ft 0 kts 59°
2026-04-15 15:56 51.51459 7.60669 425 ft 21 kts 59°
2026-04-15 15:56 51.51508 7.60812 420 ft 12 kts 61°
2026-04-15 15:57 51.51547 7.60922 427 ft 0 kts 60°
2026-04-15 15:57 51.51550 7.60931 420 ft 6 kts 61°
2026-04-15 15:57 51.51580 7.61025 421 ft 11 kts 64°
2026-04-15 15:57 51.51612 7.61132 428 ft 6 kts 62°
2026-04-15 15:58 51.51620 7.61158 423 ft 5 kts 64°
2026-04-15 15:58 51.51638 7.61227 424 ft 8 kts 82°
2026-04-15 15:58 51.51592 7.61301 430 ft 12 kts 150°
2026-04-15 15:58 51.51582 7.61310 430 ft 0 kts 150°